Location: Songkhla
(7.2000°N, 100.6000°E)
Time: 04:16:38
(UTC+07:00)

Daily predictions for brighter satellites

Satellite Brightness Start Highest point End
(mag) Time Altitude Azimuth Time Altitude Azimuth Time Altitude Azimuth
Milstar 3 4.1 03:35:06 27° NNW 03:38:20 40° NNE 03:47:20 10° E
Cosmos 2233 Rocket 4.4 03:43:57 10° N 03:49:59 57° E 03:52:59 30° SSE
Cosmos 1980 Rocket 3.1 04:01:41 37° NNW 04:01:41 37° NNW 04:05:16 10° N
Atlas Centaur 2 2.5 04:02:21 62° SSE 04:02:38 62° SSE 04:08:10 10° ENE
ARIANE 5 DEB (SYLDA) 4.2 04:01:47 56° SW 04:03:26 64° S 04:12:32 10° E
GPS 2-17 Rocket1 3.9 04:04:28 46° ENE 04:04:28 46° ENE 04:07:55 10° E
Cosmos 2278 4.3 04:05:57 45° NNW 04:05:57 45° NNW 04:10:09 10° N
Cosmos 2251 Rocket 3.9 04:02:12 10° N 04:07:20 61° ENE 04:12:29 10° SSE
COSMOS 2455 4.4 04:03:49 10° N 04:09:10 34° ENE 04:14:31 10° SE
Meteor 1-24 Rocket 4.1 04:17:57 47° NW 04:17:57 47° NW 04:22:38 10° N
Cosmos 1346 Rocket 4.1 04:16:39 29° SE 04:17:56 37° E 04:21:33 10° NNE
Cosmos 44 Rocket 3.3 04:16:08 10° NNW 04:21:47 65° S 04:26:00 10° SSE
GPS 2-14 Rocket1 2.9 04:23:13 71° E 04:23:13 71° E 04:26:58 10° ENE
SL-16 R/B 3.0 04:19:13 17° S 04:23:21 48° ESE 04:28:46 10° NNE
Cosmos 2227 Rocket 3.4 04:20:06 10° N 04:25:22 41° ENE 04:30:38 10° SE
Gbstr 26 Del rocket 3.8 04:22:47 10° NNW 04:27:07 48° NE 04:30:53 10° SE
Cosmos 2297 Rocket 2.5 04:23:59 10° N 04:29:35 67° ENE 04:35:11 10° SSE
OAO 3 Copernicus 4.2 04:29:21 61° WSW 04:30:11 78° NW 04:35:14 10° NE
CZ-2C R/B 3.9 04:27:20 10° NNW 04:30:00 23° NW 04:30:00 23° NW
METEOR-M 4.0 04:29:30 10° N 04:34:50 78° WNW 04:37:57 26° SSW
BREEZE-M DEB (TANK) 4.1 04:34:43 34° WNW 04:36:30 43° NW 04:51:05 10° NNE
SEDSat Delta rocket 3.1 04:35:55 48° SSW 04:37:04 69° SSE 04:41:24 10° ENE
CCE 1 Rocket 3.3 04:43:09 49° W 04:43:57 64° NNW 04:47:54 10° NE
NOSS 3-2 (A) 2.9 04:41:35 29° SSW 04:44:18 82° WNW 04:49:43 10° NNE
ALOS 2.9 04:42:33 10° NNW 04:46:44 34° WNW 04:47:00 33° W
GPS 2-15 Rocket1 4.4 04:47:01 21° NW 04:49:00 29° NNW 04:53:04 10° NE
Delta 198 3.7 04:47:19 22° NW 04:49:43 54° NNE 04:53:20 10° ESE
Cosmos 1263 4.5 04:50:37 31° SSW 04:52:07 70° W 04:56:11 10° N
USA 238 DEB 3.6 04:46:26 13° SSW 04:52:12 82° ESE 04:58:42 10° NNE
USA 238 3.6 04:46:29 13° SSW 04:52:18 81° ESE 04:58:48 10° NNE
ATLAS 2A CENTAUR R/B 3.4 04:50:29 32° WSW 04:52:32 77° NNW 05:07:22 10° ENE
Cosmos 1703 4.0 04:49:04 10° S 04:52:53 53° E 04:56:40 10° NNE
Cosmos 2322 Rocket 2.2 04:51:10 10° SSW 04:56:47 81° ESE 05:02:25 10° NNE
Cosmos 2219 3.1 04:54:33 10° NNW 05:00:12 67° WSW 05:05:54 10° S
Cosmos 1606 Rocket 3.8 04:57:10 10° N 05:01:33 74° E 05:05:58 10° S
Cosmos 1726 Rocket 4.2 05:00:41 10° N 05:04:58 58° E 05:09:19 10° SSE
Timation 2 Rocket 3.8 05:01:50 10° NNW 05:07:46 66° WSW 05:13:56 10° S
CZ-4B R/B 4.4 05:05:11 10° NE 05:08:35 34° ESE 05:12:07 10° SSE
Cosmos 1140 Rocket 3.5 05:06:06 10° N 05:11:19 85° ENE 05:16:33 10° SSE
Ariane H10+ 3.4 05:10:26 16° WSW 05:13:24 20° SSW 05:16:22 10° SSE
Cosmos 1184 Rocket 3.8 05:12:08 10° S 05:15:11 46° E 05:18:13 10° NNE
ARIANE 5 DEB (SYLDA) 4.5 05:14:18 13° SW 05:15:55 14° SSW 05:17:51 10° SSE
Meteor 1-31 Rocket 3.0 05:12:18 10° N 05:16:05 51° WNW 05:19:54 10° SSW
Cosmos 1464 Rocket 3.9 05:10:06 10° N 05:16:14 69° W 05:22:27 10° S
Intelsat 5-3 Rocket 4.3 05:12:57 10° WNW 05:16:15 17° NNW 05:18:26 10° NNE
Palapa B4 Rocket 3.2 05:12:23 17° WSW 05:16:36 74° NNW 05:20:35 10° ENE
ERBS 4.0 05:17:24 16° SW 05:17:24 16° SW 05:18:55 10° SSW
Cosmos 1484 Rocket 4.5 05:14:34 10° NW 05:16:54 15° WNW 05:17:33 15° W
TSX-5 4.4 05:13:43 10° NNW 05:18:02 85° ENE 05:23:43 10° SSE
Cosmos 1513 Rocket 4.5 05:12:03 10° NNW 05:18:03 59° W 05:24:00 10° S
Cosmos 1626 Rocket 3.5 05:15:37 10° S 05:19:56 87° W 05:24:15 10° N
SWIFT 2.5 05:16:49 16° WSW 05:20:08 63° SSE 05:24:21 10° ENE
Cosmos 2034 Rocket 4.1 05:14:21 10° N 05:20:41 83° E 05:26:57 10° S
CZ-3C R/B 3.4 05:20:27 10° SW 05:24:10 19° S 05:34:25 10° SE
Cosmos 2360 Rocket 2.4 05:19:51 10° SSW 05:25:30 79° ESE 05:31:09 10° NNE
Gblst 52 Del rocket 4.2 05:21:14 10° NW 05:26:32 53° SW 05:32:02 10° SSE
YAOGAN 6 2.8 05:25:28 10° NNE 05:29:07 74° E 05:32:45 10° S
Ariane H10 3.5 05:30:37 11° SW 05:31:57 16° S 05:33:23 10° SE
Cosmos 407 Rocket 3.9 05:30:03 10° NNW 05:35:02 41° WSW 05:40:01 10° S
H-2A R/B 2.9 05:34:19 10° N 05:37:56 51° WNW 05:41:37 10° SSW
ASTEX 1 3.5 05:33:49 10° S 05:38:37 57° W 05:43:27 10° NNW
ARIANE 5 R/B 3.9 05:36:29 10° SW 05:39:52 29° SSE 05:52:35 10° ESE
Cosmos 2228 4.2 05:37:06 10° NW 05:40:27 22° W 05:43:49 10° SW
GPS 2-18 Rocket1 4.0 05:38:21 10° W 05:41:49 31° SSW 05:45:21 10° SE
CENTAUR R/B 2.9 05:40:25 10° SW 05:45:00 32° WNW 05:50:00 10° N
